| time (UTC) | temp F | wind direction | speed MPH | gust MPH | rain 1hr in | rain 24hr in | rain mn in | humidity % | barometer mb |
| 20260505173009 | 81 | 169 | 4.0 | 9.0 | 0.00 | 0.00 | 0.00 | 47 | 1011.4 |
| 20260505172511 | 80 | 298 | 1.0 | 9.0 | 0.00 | 0.00 | 0.00 | 51 | 1011.5 |
| 20260505172009 | 80 | 112 | 5.0 | 10.0 | 0.00 | 0.00 | 0.00 | 49 | 1011.6 |
| 20260505171508 | 80 | 173 | 3.0 | 11.0 | 0.00 | 0.00 | 0.00 | 49 | 1011.7 |
| 20260505171010 | 79 | 169 | 6.0 | 11.0 | 0.00 | 0.00 | 0.00 | 51 | 1011.7 |
| 20260505170509 | 79 | 207 | 3.0 | 7.0 | 0.00 | 0.00 | 0.00 | 49 | 1011.8 |
| 20260505170012 | 79 | 52 | 2.0 | 9.0 | 0.00 | 0.00 | 0.00 | 51 | 1011.8 |
| 20260505165509 | 79 | 184 | 4.0 | 10.0 | 0.00 | 0.00 | 0.00 | 50 | 1011.9 |
| 20260505165011 | 79 | 185 | 3.0 | 11.0 | 0.00 | 0.00 | 0.00 | 50 | 1011.9 |
| 20260505164508 | 79 | 169 | 3.0 | 7.0 | 0.00 | 0.00 | 0.00 | 51 | 1011.9 |
| 20260505164010 | 78 | 152 | 3.0 | 9.0 | 0.00 | 0.00 | 0.00 | 50 | 1012.0 |
| 20260505163510 | 79 | 72 | 4.0 | 9.0 | 0.00 | 0.00 | 0.00 | 49 | 1012.0 |
| 20260505163010 | 79 | 178 | 2.0 | 8.0 | 0.00 | 0.00 | 0.00 | 53 | 1012.1 |
| 20260505162010 | 78 | 157 | 3.0 | 8.0 | 0.00 | 0.00 | 0.00 | 52 | 1012.1 |
| 20260505161509 | 78 | 213 | 4.0 | 10.0 | 0.00 | 0.00 | 0.00 | 51 | 1012.2 |
| 20260505153010 | 76 | 203 | 2.0 | 6.0 | 0.00 | 0.00 | 0.00 | 55 | 1012.6 |
| 20260505152510 | 76 | 115 | 2.0 | 6.0 | 0.00 | 0.00 | 0.00 | 54 | 1012.6 |
| 20260505152008 | 75 | 44 | 3.0 | 5.0 | 0.00 | 0.00 | 0.00 | 53 | 1012.6 |
| 20260505151507 | 75 | 184 | 3.0 | 6.0 | 0.00 | 0.00 | 0.00 | 54 | 1012.6 |
| 20260505140507 | 73 | 171 | 3.0 | 6.0 | 0.00 | 0.00 | 0.00 | 58 | 1012.8 |
| 20260505125010 | 66 | 253 | 1.0 | 5.0 | 0.00 | 0.00 | 0.00 | 65 | 1013.0 |
| 20260505124507 | 66 | 338 | 0.0 | 8.0 | 0.00 | 0.00 | 0.00 | 68 | 1013.0 |
| 20260505124008 | 65 | 340 | 1.0 | 8.0 | 0.00 | 0.00 | 0.00 | 68 | 1013.0 |
| 20260505123507 | 64 | 163 | 2.0 | 6.0 | 0.00 | 0.00 | 0.00 | 70 | 1012.8 |
| 20260505123010 | 63 | 296 | 2.0 | 6.0 | 0.00 | 0.00 | 0.00 | 71 | 1012.8 |
| 20260505122507 | 62 | 350 | 1.0 | 4.0 | 0.00 | 0.00 | 0.00 | 73 | 1012.8 |
| 20260505122008 | 62 | 187 | 1.0 | 4.0 | 0.00 | 0.00 | 0.00 | 75 | 1012.8 |
| 20260505121509 | 61 | 113 | 1.0 | 10.0 | 0.00 | 0.00 | 0.00 | 76 | 1012.8 |
| 20260505120508 | 60 | 194 | 1.0 | 3.0 | 0.00 | 0.00 | 0.00 | 79 | 1012.7 |
| 20260505120009 | 59 | 167 | 0.0 | 1.0 | 0.00 | 0.00 | 0.00 | 81 | 1012.6 |
| 20260505115506 | 58 | 162 | 0.0 | 4.0 | 0.00 | 0.00 | 0.00 | 83 | 1012.7 |
| 20260505115009 | 58 | 162 | 1.0 | 4.0 | 0.00 | 0.00 | 0.00 | 83 | 1012.7 |
| 20260505114506 | 57 | 134 | 1.0 | 4.0 | 0.00 | 0.00 | 0.00 | 85 | 1012.8 |
| 20260505114008 | 57 | 144 | 0.0 | 2.0 | 0.00 | 0.00 | 0.00 | 85 | 1012.6 |
| 20260505112507 | 56 | 144 | 0.0 | 1.0 | 0.00 | 0.00 | 0.00 | 87 | 1012.5 |
| 20260505111507 | 55 | 144 | 0.0 | 0.0 | 0.00 | 0.00 | 0.00 | 88 | 1012.4 |
| 20260505111007 | 55 | 144 | 0.0 | 3.0 | 0.00 | 0.00 | 0.00 | 88 | 1012.4 |
| 20260505110508 | 55 | 217 | 0.0 | 0.0 | 0.00 | 0.00 | 0.00 | 88 | 1012.2 |
| 20260505102016 | 55 | 217 | 0.0 | 0.0 | 0.00 | 0.00 | 0.00 | 87 | 1012.2 |
| 20260505101008 | 56 | 217 | 0.0 | 0.0 | 0.00 | 0.00 | 0.00 | 86 | 1012.1 |
| 20260505100508 | 56 | 217 | 0.0 | 2.0 | 0.00 | 0.00 | 0.00 | 86 | 1012.1 |
| 20260505100009 | 56 | 217 | 0.0 | 2.0 | 0.00 | 0.00 | 0.00 | 86 | 1011.9 |
| 20260505095508 | 56 | 217 | 0.0 | 0.0 | 0.00 | 0.00 | 0.00 | 86 | 1011.9 |
| 20260505095008 | 56 | 217 | 0.0 | 0.0 | 0.00 | 0.00 | 0.00 | 85 | 1011.9 |
| 20260505094507 | 56 | 217 | 0.0 | 0.0 | 0.00 | 0.00 | 0.00 | 85 | 1011.8 |
| 20260505094009 | 56 | 217 | 0.0 | 0.0 | 0.00 | 0.00 | 0.00 | 85 | 1011.9 |
| 20260505093507 | 57 | 217 | 0.0 | 0.0 | 0.00 | 0.00 | 0.00 | 85 | 1011.8 |
| 20260505093008 | 57 | 217 | 0.0 | 0.0 | 0.00 | 0.00 | 0.00 | 85 | 1011.8 |
| 20260505092009 | 57 | 217 | 0.0 | 0.0 | 0.00 | 0.00 | 0.00 | 85 | 1011.8 |
| 20260505091508 | 57 | 217 | 0.0 | 0.0 | 0.00 | 0.00 | 0.00 | 85 | 1011.8 |
| 20260505091008 | 57 | 217 | 0.0 | 1.0 | 0.00 | 0.00 | 0.00 | 85 | 1011.8 |
| 20260505090011 | 57 | 217 | 0.0 | 0.0 | 0.00 | 0.00 | 0.00 | 85 | 1011.9 |
| 20260505085506 | 57 | 217 | 0.0 | 0.0 | 0.00 | 0.00 | 0.00 | 86 | 1011.9 |
| 20260505085009 | 57 | 217 | 0.0 | 0.0 | 0.00 | 0.00 | 0.00 | 86 | 1011.9 |
| 20260505084506 | 57 | 218 | 0.0 | 0.0 | 0.00 | 0.00 | 0.00 | 86 | 1011.9 |
| 20260505083508 | 57 | 218 | 0.0 | 1.0 | 0.00 | 0.00 | 0.00 | 86 | 1011.7 |
| 20260505083008 | 56 | 218 | 0.0 | 5.0 | 0.00 | 0.00 | 0.00 | 86 | 1011.7 |
| 20260505082506 | 56 | 218 | 0.0 | 5.0 | 0.00 | 0.00 | 0.00 | 87 | 1011.7 |
| 20260505081507 | 56 | 220 | 0.0 | 1.0 | 0.00 | 0.00 | 0.00 | 87 | 1011.8 |
| 20260505081007 | 56 | 220 | 0.0 | 2.0 | 0.00 | 0.00 | 0.00 | 87 | 1011.8 |
| 20260505080508 | 56 | 219 | 0.0 | 1.0 | 0.00 | 0.00 | 0.00 | 87 | 1011.8 |
| 20260505075506 | 56 | 214 | 0.0 | 0.0 | 0.00 | 0.00 | 0.00 | 86 | 1011.8 |
| 20260505075009 | 56 | 214 | 0.0 | 0.0 | 0.00 | 0.00 | 0.00 | 86 | 1011.7 |
| 20260505074506 | 56 | 214 | 0.0 | 0.0 | 0.00 | 0.00 | 0.00 | 86 | 1011.8 |
| 20260505073508 | 56 | 214 | 0.0 | 0.0 | 0.00 | 0.00 | 0.00 | 85 | 1011.9 |
| 20260505073008 | 56 | 214 | 0.0 | 0.0 | 0.00 | 0.00 | 0.00 | 85 | 1011.9 |
| 20260505072507 | 56 | 214 | 0.0 | 0.0 | 0.00 | 0.00 | 0.00 | 84 | 1011.8 |
| 20260505072008 | 56 | 214 | 0.0 | 1.0 | 0.00 | 0.00 | 0.00 | 84 | 1011.9 |
| 20260505071506 | 56 | 214 | 0.0 | 1.0 | 0.00 | 0.00 | 0.00 | 83 | 1011.9 |
| 20260505071006 | 56 | 214 | 0.0 | 0.0 | 0.00 | 0.00 | 0.00 | 82 | 1011.9 |
| 20260505070507 | 56 | 214 | 0.0 | 0.0 | 0.00 | 0.00 | 0.00 | 81 | 1011.9 |
| 20260505070008 | 56 | 214 | 0.0 | 1.0 | 0.00 | 0.00 | 0.00 | 80 | 1011.9 |
| 20260505065507 | 56 | 214 | 0.0 | 3.0 | 0.00 | 0.00 | 0.00 | 79 | 1011.9 |
| 20260505065008 | 56 | 214 | 0.0 | 0.0 | 0.00 | 0.00 | 0.00 | 78 | 1011.8 |
| 20260505064507 | 56 | 214 | 0.0 | 0.0 | 0.00 | 0.00 | 0.00 | 78 | 1011.8 |
| 20260505063507 | 56 | 214 | 0.0 | 0.0 | 0.00 | 0.00 | 0.00 | 77 | 1011.9 |
| 20260505063007 | 56 | 214 | 0.0 | 0.0 | 0.00 | 0.00 | 0.00 | 77 | 1011.8 |
| 20260505062506 | 56 | 214 | 0.0 | 0.0 | 0.00 | 0.00 | 0.00 | 77 | 1011.8 |
| 20260505062008 | 57 | 214 | 0.0 | 0.0 | 0.00 | 0.00 | 0.00 | 77 | 1011.8 |
| 20260505061008 | 57 | 214 | 0.0 | 1.0 | 0.00 | 0.00 | 0.00 | 76 | 1011.9 |
| 20260505060506 | 57 | 214 | 0.0 | 0.0 | 0.00 | 0.00 | 0.00 | 75 | 1011.9 |
| 20260505060026 | 57 | 214 | 0.0 | 0.0 | 0.00 | 0.00 | 0.00 | 74 | 1011.9 |
| 20260505055506 | 57 | 214 | 0.0 | 0.0 | 0.00 | 0.00 | 0.00 | 73 | 1011.9 |
| 20260505055008 | 58 | 214 | 0.0 | 0.0 | 0.00 | 0.00 | 0.00 | 73 | 1011.9 |
| 20260505054507 | 58 | 214 | 0.0 | 0.0 | 0.00 | 0.00 | 0.00 | 72 | 1011.9 |
| 20260505053507 | 58 | 214 | 0.0 | 0.0 | 0.00 | 0.00 | 0.00 | 71 | 1011.9 |
| 20260505053009 | 58 | 214 | 0.0 | 0.0 | 0.00 | 0.00 | 0.00 | 71 | 1012.0 |
| 20260505052506 | 59 | 214 | 0.0 | 0.0 | 0.00 | 0.00 | 0.00 | 71 | 1012.0 |
| 20260505052007 | 59 | 214 | 0.0 | 0.0 | 0.00 | 0.00 | 0.00 | 70 | 1012.1 |
| 20260505051007 | 59 | 214 | 0.0 | 1.0 | 0.00 | 0.00 | 0.00 | 70 | 1012.2 |
| 20260505050506 | 59 | 214 | 0.0 | 1.0 | 0.00 | 0.00 | 0.00 | 69 | 1012.1 |
| 20260505041510 | 59 | 20 | 0.0 | 2.0 | 0.00 | 0.00 | 0.00 | 65 | 1011.9 |
| 20260505040508 | 59 | 188 | 0.0 | 1.0 | 0.00 | 0.00 | 0.00 | 64 | 1011.9 |
| 20260505040025 | 60 | 188 | 0.0 | 1.0 | 0.00 | 0.00 | 0.00 | 64 | 1011.9 |
| 20260505035508 | 60 | 188 | 0.0 | 1.0 | 0.00 | 0.00 | 0.00 | 64 | 1011.8 |
| 20260505035009 | 60 | 188 | 0.0 | 0.0 | 0.00 | 0.00 | 0.00 | 63 | 1011.8 |
| 20260505034509 | 60 | 188 | 0.0 | 0.0 | 0.00 | 0.00 | 0.00 | 63 | 1011.8 |
| 20260505034009 | 60 | 188 | 0.0 | 2.0 | 0.00 | 0.00 | 0.00 | 62 | 1011.9 |
| 20260505033508 | 60 | 188 | 0.0 | 3.0 | 0.00 | 0.00 | 0.00 | 62 | 1011.9 |
| 20260505033010 | 60 | 196 | 0.0 | 0.0 | 0.00 | 0.00 | 0.00 | 62 | 1011.9 |
| 20260505032508 | 60 | 196 | 0.0 | 0.0 | 0.00 | 0.00 | 0.00 | 62 | 1012.0 |
| 20260505032009 | 60 | 196 | 0.0 | 3.0 | 0.00 | 0.00 | 0.00 | 62 | 1011.9 |
| 20260505031510 | 60 | 217 | 0.0 | 2.0 | 0.00 | 0.00 | 0.00 | 62 | 1011.8 |
| 20260505031010 | 60 | 125 | 0.0 | 2.0 | 0.00 | 0.00 | 0.00 | 62 | 1011.9 |
| 20260505025508 | 60 | 157 | 1.0 | 2.0 | 0.00 | 0.00 | 0.00 | 63 | 1011.8 |
| 20260505024509 | 60 | 167 | 0.0 | 4.0 | 0.00 | 0.00 | 0.00 | 62 | 1012.1 |
| 20260505024009 | 60 | 196 | 1.0 | 4.0 | 0.00 | 0.00 | 0.00 | 62 | 1012.1 |
| 20260505023508 | 60 | 146 | 0.0 | 3.0 | 0.00 | 0.00 | 0.00 | 61 | 1012.1 |
| 20260505023011 | 60 | 137 | 0.0 | 0.0 | 0.00 | 0.00 | 0.00 | 61 | 1012.1 |
| 20260505022508 | 61 | 137 | 0.0 | 0.0 | 0.00 | 0.00 | 0.00 | 61 | 1012.1 |
| 20260505022018 | 61 | 137 | 0.0 | 0.0 | 0.00 | 0.00 | 0.00 | 61 | 1012.2 |
| 20260505020508 | 61 | 137 | 0.0 | 0.0 | 0.00 | 0.00 | 0.00 | 60 | 1012.2 |
| 20260505020018 | 61 | 137 | 0.0 | 2.0 | 0.00 | 0.00 | 0.00 | 59 | 1012.2 |
| 20260505015508 | 61 | 137 | 0.0 | 2.0 | 0.00 | 0.00 | 0.00 | 59 | 1012.2 |
| 20260505014508 | 62 | 134 | 0.0 | 1.0 | 0.00 | 0.00 | 0.00 | 59 | 1011.9 |
| 20260505014026 | 62 | 134 | 0.0 | 1.0 | 0.00 | 0.00 | 0.00 | 59 | 1012.0 |
| 20260505013508 | 62 | 132 | 0.0 | 0.0 | 0.00 | 0.00 | 0.00 | 59 | 1012.1 |
| 20260505013010 | 63 | 132 | 0.0 | 0.0 | 0.00 | 0.00 | 0.00 | 59 | 1012.2 |
| 20260505012010 | 63 | 132 | 0.0 | 0.0 | 0.00 | 0.00 | 0.00 | 58 | 1012.0 |
| 20260505011510 | 63 | 132 | 0.0 | 1.0 | 0.00 | 0.00 | 0.00 | 58 | 1011.9 |
| 20260505011018 | 63 | 132 | 0.0 | 1.0 | 0.00 | 0.00 | 0.00 | 58 | 1011.9 |
| 20260505010019 | 63 | 152 | 0.0 | 1.0 | 0.00 | 0.00 | 0.00 | 57 | 1011.7 |
| 20260505004509 | 63 | 136 | 0.0 | 4.0 | 0.00 | 0.00 | 0.00 | 57 | 1011.6 |
| 20260505004018 | 63 | 139 | 0.0 | 4.0 | 0.00 | 0.00 | 0.00 | 56 | 1011.6 |
| 20260505003508 | 63 | 159 | 0.0 | 0.0 | 0.00 | 0.00 | 0.00 | 55 | 1011.4 |
| 20260505003022 | 63 | 159 | 0.0 | 0.0 | 0.00 | 0.00 | 0.00 | 54 | 1011.3 |
| 20260505002508 | 64 | 159 | 0.0 | 0.0 | 0.00 | 0.00 | 0.00 | 53 | 1011.3 |
| 20260505002019 | 64 | 24 | 0.0 | 0.0 | 0.00 | 0.00 | 0.00 | 53 | 1011.2 |
| 20260505000508 | 66 | 24 | 0.0 | 0.0 | 0.00 | 0.00 | 0.00 | 48 | 1011.2 |
| 20260505000024 | 67 | 24 | 0.0 | 1.0 | 0.00 | 0.00 | 0.00 | 48 | 1011.0 |
| 20260504235508 | 67 | 24 | 0.0 | 2.0 | 0.00 | 0.00 | 0.00 | 48 | 1011.0 |
| 20260504235024 | 68 | 24 | 0.0 | 3.0 | 0.00 | 0.00 | 0.00 | 46 | 1010.9 |
| 20260504234510 | 68 | 50 | 1.0 | 4.0 | 0.00 | 0.00 | 0.00 | 47 | 1010.9 |
| 20260504234010 | 68 | 235 | 0.0 | 4.0 | 0.00 | 0.00 | 0.00 | 46 | 1010.9 |
| 20260504233508 | 69 | 216 | 1.0 | 3.0 | 0.00 | 0.00 | 0.00 | 45 | 1011.0 |
| 20260504233011 | 69 | 227 | 1.0 | 7.0 | 0.00 | 0.00 | 0.00 | 44 | 1010.9 |
| 20260504232508 | 69 | 240 | 1.0 | 6.0 | 0.00 | 0.00 | 0.00 | 44 | 1010.9 |
| 20260504232009 | 70 | 266 | 2.0 | 6.0 | 0.00 | 0.00 | 0.00 | 43 | 1010.9 |
| 20260504231008 | 70 | 269 | 3.0 | 6.0 | 0.00 | 0.00 | 0.00 | 42 | 1010.7 |
| 20260504230508 | 70 | 178 | 2.0 | 6.0 | 0.00 | 0.00 | 0.00 | 43 | 1010.8 |
| 20260504225507 | 70 | 71 | 1.0 | 6.0 | 0.00 | 0.00 | 0.00 | 43 | 1010.8 |
| 20260504225008 | 70 | 267 | 3.0 | 8.0 | 0.00 | 0.00 | 0.00 | 42 | 1010.7 |
| 20260504224509 | 70 | 208 | 2.0 | 8.0 | 0.00 | 0.00 | 0.00 | 42 | 1010.7 |
| 20260504224008 | 71 | 247 | 2.0 | 5.0 | 0.00 | 0.00 | 0.00 | 42 | 1010.7 |
| 20260504223507 | 71 | 165 | 2.0 | 5.0 | 0.00 | 0.00 | 0.00 | 41 | 1010.7 |
| 20260504223009 | 71 | 220 | 1.0 | 5.0 | 0.00 | 0.00 | 0.00 | 41 | 1010.7 |
| 20260504222507 | 71 | 186 | 2.0 | 5.0 | 0.00 | 0.00 | 0.00 | 41 | 1010.8 |
| 20260504222009 | 71 | 132 | 1.0 | 9.0 | 0.00 | 0.00 | 0.00 | 41 | 1010.9 |
| 20260504221508 | 71 | 248 | 3.0 | 9.0 | 0.00 | 0.00 | 0.00 | 40 | 1010.9 |
| 20260504221010 | 71 | 217 | 3.0 | 7.0 | 0.00 | 0.00 | 0.00 | 39 | 1010.9 |
| 20260504220507 | 71 | 124 | 2.0 | 6.0 | 0.00 | 0.00 | 0.00 | 40 | 1010.9 |
| 20260504220011 | 72 | 137 | 2.0 | 6.0 | 0.00 | 0.00 | 0.00 | 41 | 1010.9 |
| 20260504215507 | 72 | 262 | 2.0 | 9.0 | 0.00 | 0.00 | 0.00 | 40 | 1010.9 |
| 20260504215008 | 72 | 163 | 3.0 | 9.0 | 0.00 | 0.00 | 0.00 | 41 | 1011.1 |
| 20260504214008 | 72 | 250 | 4.0 | 12.0 | 0.00 | 0.00 | 0.00 | 39 | 1011.1 |
| 20260504213507 | 72 | 25 | 2.0 | 9.0 | 0.00 | 0.00 | 0.00 | 39 | 1011.2 |
| 20260504213009 | 72 | 294 | 4.0 | 9.0 | 0.00 | 0.00 | 0.00 | 38 | 1011.2 |
| 20260504212507 | 72 | 355 | 2.0 | 8.0 | 0.00 | 0.00 | 0.00 | 40 | 1011.2 |
| 20260504212008 | 72 | 269 | 2.0 | 9.0 | 0.00 | 0.00 | 0.00 | 40 | 1011.1 |
| 20260504211509 | 72 | 288 | 4.0 | 9.0 | 0.00 | 0.00 | 0.00 | 39 | 1011.2 |
| 20260504211008 | 72 | 93 | 1.0 | 10.0 | 0.00 | 0.00 | 0.00 | 42 | 1011.2 |
| 20260504205507 | 72 | 213 | 3.0 | 10.0 | 0.00 | 0.00 | 0.00 | 41 | 1011.3 |
| 20260504205008 | 73 | 268 | 3.0 | 10.0 | 0.00 | 0.00 | 0.00 | 38 | 1011.3 |
| 20260504204508 | 72 | 333 | 1.0 | 5.0 | 0.00 | 0.00 | 0.00 | 40 | 1011.2 |
| 20260504204008 | 72 | 201 | 2.0 | 13.0 | 0.00 | 0.00 | 0.00 | 39 | 1011.2 |
| 20260504203507 | 72 | 267 | 3.0 | 13.0 | 0.00 | 0.00 | 0.00 | 41 | 1011.3 |
| 20260504203010 | 72 | 185 | 5.0 | 10.0 | 0.00 | 0.00 | 0.00 | 41 | 1011.4 |
| 20260504202507 | 72 | 69 | 1.0 | 7.0 | 0.00 | 0.00 | 0.00 | 42 | 1011.4 |
| 20260504202008 | 72 | 292 | 4.0 | 9.0 | 0.00 | 0.00 | 0.00 | 40 | 1011.4 |
| 20260504201509 | 72 | 258 | 3.0 | 11.0 | 0.00 | 0.00 | 0.00 | 41 | 1011.5 |
| 20260504201009 | 72 | 81 | 4.0 | 9.0 | 0.00 | 0.00 | 0.00 | 39 | 1011.6 |
| 20260504195507 | 72 | 208 | 2.0 | 11.0 | 0.00 | 0.00 | 0.00 | 40 | 1011.7 |
| 20260504195009 | 72 | 66 | 3.0 | 12.0 | 0.00 | 0.00 | 0.00 | 40 | 1011.7 |
| 20260504194508 | 72 | 272 | 3.0 | 12.0 | 0.00 | 0.00 | 0.00 | 39 | 1011.6 |
| 20260504194008 | 73 | 284 | 2.0 | 8.0 | 0.00 | 0.00 | 0.00 | 40 | 1011.7 |
| 20260504193507 | 72 | 240 | 3.0 | 8.0 | 0.00 | 0.00 | 0.00 | 41 | 1011.7 |
| 20260504193009 | 72 | 144 | 2.0 | 10.0 | 0.00 | 0.00 | 0.00 | 37 | 1011.7 |
| 20260504192507 | 72 | 293 | 5.0 | 10.0 | 0.00 | 0.00 | 0.00 | 38 | 1012.0 |
| 20260504191509 | 72 | 5 | 4.0 | 10.0 | 0.00 | 0.00 | 0.00 | 40 | 1012.1 |
| 20260504191009 | 72 | 276 | 4.0 | 15.0 | 0.00 | 0.00 | 0.00 | 37 | 1012.0 |
| 20260504190010 | 72 | 125 | 3.0 | 7.0 | 0.00 | 0.00 | 0.00 | 38 | 1012.0 |
| 20260504185507 | 71 | 98 | 3.0 | 8.0 | 0.00 | 0.00 | 0.00 | 38 | 1012.1 |
| 20260504185009 | 71 | 319 | 2.0 | 9.0 | 0.00 | 0.00 | 0.00 | 40 | 1012.1 |
| 20260504184507 | 71 | 182 | 5.0 | 9.0 | 0.00 | 0.00 | 0.00 | 39 | 1012.1 |
| 20260504184009 | 70 | 163 | 2.0 | 6.0 | 0.00 | 0.00 | 0.00 | 40 | 1012.3 |
| 20260504183507 | 71 | 130 | 3.0 | 7.0 | 0.00 | 0.00 | 0.00 | 40 | 1012.4 |
| 20260504183008 | 71 | 84 | 3.0 | 6.0 | 0.00 | 0.00 | 0.00 | 41 | 1012.4 |
| 20260504182507 | 71 | 231 | 4.0 | 15.0 | 0.00 | 0.00 | 0.00 | 40 | 1012.4 |
| 20260504182010 | 70 | 84 | 6.0 | 15.0 | 0.00 | 0.00 | 0.00 | 40 | 1012.6 |
| 20260504181507 | 71 | 321 | 3.0 | 10.0 | 0.00 | 0.00 | 0.00 | 44 | 1012.8 |
| 20260504180508 | 71 | 260 | 3.0 | 6.0 | 0.00 | 0.00 | 0.00 | 45 | 1013.0 |
| 20260504180009 | 70 | 181 | 3.0 | 10.0 | 0.00 | 0.00 | 0.00 | 41 | 1013.0 |
| 20260504175507 | 71 | 291 | 4.0 | 10.0 | 0.00 | 0.00 | 0.00 | 40 | 1013.0 |
| 20260504175009 | 71 | 329 | 5.0 | 10.0 | 0.00 | 0.00 | 0.00 | 38 | 1013.1 |
| 20260504174507 | 70 | 296 | 2.0 | 6.0 | 0.00 | 0.00 | 0.00 | 40 | 1013.1 |
| 20260504174009 | 70 | 183 | 4.0 | 9.0 | 0.00 | 0.00 | 0.00 | 41 | 1013.3 |
| 20260504173507 | 70 | 82 | 3.0 | 10.0 | 0.00 | 0.00 | 0.00 | 38 | 1013.3 |